STARLINK-34661, 64927

Orbit data source: Space-Track

STARLINK-34661, 64927 is a payload satellite owned by SpaceX/Seattle (US) in LEO that was launched on Sat, 26 Jul 2025 UTC via an FALCON 9 launch vehicle from the Air Force Eastern Test Range (AFETR). Payload-class satellites include a variety of spacecraft equipped with specific instruments for various scientific and technological missions. These include communications satellites like Starlink; space stations such as the ISS; scientific satellites like the Hubble; Earth observation satellites from companies like Planet Labs, Umbra, and HawkEye 360; GPS; miniature CubeSats for education and research; and military/defense satellites.

Loading next visibility...
Identifier
64927, 2025-157Z
Orbit
LEO
Country
Flag of USUS
Related business
Manufacturer
SpaceX/Seattle
Mission
Operational Commercial Communications
Bus & Motor
STARLINK V2MO, Unknown motor
Mass
575 kg wet, ~530 kg dry
Launch date (UTC)
2025-07-26 (10 months ago)
Launch vehicle
FALCON 9
Launch site
Air Force Eastern Test Range (AFETR)
Object type
Payload
Rocket body
Debris
Shape & HBR
Box + 2 Pan, 17.7 m
Radar Cross Section
36.964 m², Large (>1 m²)

Expand to show TLE details & history
Last TLE update: 21 hours ago

TLE from 21 hours ago
0 STARLINK-34661
1 64927U 25157Z   26144.98708500  .00016301  00000-0  56105-3 0  9993
2 64927  53.1588 351.3772 0001120  79.8981 280.2147 15.30213779 47524
Epoch: 2026-05-24T23:41Z
TLE epoch observation values (Epoch: 2026-05-24T23:41:24.143Z)
Latitude
0.00008°
Longitude
113.44531°
Altitude
475.937 km
Speed
7.629 km/s
True Right ascension
23h 25m 30s
True Declination
0° 00' 00"
Sunlit
Object was in daylight at epoch
Visualization orbit readout
Latitude
Unknown
Longitude
Unknown
Altitude
Unknown
Speed
Unknown
Apparent Right ascension
Unknown
Apparent Declination
Unknown
Sunlit
N/A
Visualization observer readout
Local Sidereal Time
06:09:53
Azimuth
Unknown
Elevation
Unknown
Doppler factor
Unknown
Orbital elements
Apogee altitude
476.198 km
Perigee altitude
474.663 km
Semi-major axis
6,853.568 km
Eccentricity
0.00011
Inclination
53.1588°
RAAN
351.3772°
Arg. of periapsis
79.8981°
True anomaly
280.20207°
Mean anomaly
280.2147°
Eccentric anomaly
280.20838°
Mean motion
3.82532 °/min
Orbital period
94.11 mins
BSTAR
0.00056105
Loading maneuver chart data...
Computing Atmospheric mass density...
Loading historical data...
Loading historical data...
Loading historical data...
Loading historical data...
Loading historical data...
Loading historical data...
Loading historical data...

Documentation

Showing up to 5 results
|